This is the latest recevied weather packets stored in our database for station/object K1LVA. If no packets are shown the sender has not sent any weather packets the latest 10 day(s).
| Time | Temp. | Humidity | Pressure | Rain* | Wind** | Luminosity | Snow |
|---|---|---|---|---|---|---|---|
| 1778105798 | 29.44° C | 51% | 1012.3 hPa | 0 mm | - | 150 W/m² | - |
| 1778105496 | 30° C | 50% | 1012.4 hPa | 0 mm | - | 151 W/m² | - |
| 1778105192 | 29.44° C | 49% | 1012.3 hPa | 0 mm | - | 202 W/m² | - |
| 1778104887 | 29.44° C | 50% | 1012.4 hPa | 0 mm | - | 189 W/m² | - |
| 1778104584 | 30° C | 48% | 1012.3 hPa | 0 mm | - | 181 W/m² | - |
| 1778104280 | 30° C | 48% | 1012.3 hPa | 0 mm | - | 121 W/m² | - |
| 1778103977 | 30.56° C | 48% | 1012.3 hPa | 0 mm | - | 289 W/m² | - |
| 1778103674 | 30.56° C | 48% | 1012.2 hPa | 0 mm | - | 290 W/m² | - |
| 1778103372 | 30.56° C | 49% | 1012.3 hPa | 0 mm | - | 319 W/m² | - |
| 1778103069 | 30.56° C | 48% | 1012.3 hPa | 0 mm | - | 313 W/m² | - |
| 1778102766 | 30.56° C | 49% | 1012.7 hPa | 0 mm | - | 354 W/m² | - |
| 1778102461 | 30.56° C | 47% | 1012.6 hPa | 0 mm | - | 406 W/m² | - |
| 1778102156 | 30.56° C | 47% | 1012.4 hPa | 0 mm | - | 466 W/m² | - |
| 1778101849 | 31.11° C | 47% | 1012.3 hPa | 0 mm | - | 456 W/m² | - |
| 1778101545 | 30.56° C | 46% | 1012.4 hPa | 0 mm | - | 458 W/m² | - |
| 1778101241 | 30.56° C | 47% | 1012.4 hPa | 0 mm | - | 469 W/m² | - |
| 1778100938 | 30.56° C | 47% | 1012.6 hPa | 0 mm | - | 491 W/m² | - |
| 1778100633 | 30.56° C | 47% | 1012.8 hPa | 0 mm | - | 498 W/m² | - |
| 1778100331 | 30.56° C | 49% | 1012.4 hPa | 0 mm | - | 486 W/m² | - |
| 1778100028 | 30.56° C | 47% | 1012.8 hPa | 0 mm | - | 522 W/m² | - |
| 1778099721 | 30.56° C | 48% | 1012.7 hPa | 0 mm | - | 549 W/m² | - |
| 1778099417 | 30.56° C | 47% | 1012.8 hPa | 0 mm | - | 551 W/m² | - |
| 1778099114 | 30.56° C | 48% | 1012.9 hPa | 0 mm | - | 558 W/m² | - |
| 1778098811 | 30° C | 47% | 1012.9 hPa | 0 mm | - | 571 W/m² | - |
| 1778098509 | 30.56° C | 48% | 1013.2 hPa | 0 mm | - | 586 W/m² | - |
* Rain latest hour (hover to see other rain measurements)
** Current wind speed in m/s (hover to see current wind gust speed)